Theta_e
315 313 316 316 318 319 321 321 316 314 317 320 314 313 316 315 314 312 312 311 311 310 312 313 312 314 315 317 317 319 323 323 323 324 320 319 319 319 317 318 319 321 323 330 334
315 313 315 317 317 318 320 321 321 314 314 317 315 315 313 314 314 314 318 316 312 310 312 313 314 314 315 318 317 318 322 323 322 321 318 318 318 317 317 317 319 320 326 333 335
315 314 314 317 317 318 319 319 320 321 320 317 316 315 314 314 314 314 314 315 312 309 309 313 313 315 315 317 318 318 322 320 319 317 318 318 318 316 316 317 316 319 325 332 334
315 315 315 316 316 317 317 318 319 319 319 319 317 317 315 313 320 316 313 313 311 309 310 313 314 315 316 317 316 318 317 316 317 315 317 318 318 318 316 317 316 316 325 331 330
316 315 315 316 317 317 317 318 318 318 318 316 316 315 314 315 313 312 316 311 310 311 313 312 314 315 316 316 316 316 315 316 315 315 317 317 317 317 317 314 313 316 324 328 329
316 315 315 316 316 317 317 318 318 317 316 314 316 313 315 312 311 311 311 311 311 312 313 312 314 315 315 315 316 315 315 314 314 315 314 316 315 315 315 312 313 315 318 322 325
316 315 315 315 316 316 317 317 317 316 313 313 312 313 311 311 310 313 313 312 313 313 313 312 312 313 315 316 313 315 315 314 314 314 314 314 315 314 313 314 314 312 314 316 321
316 315 315 314 315 316 317 317 316 314 312 310 310 313 311 310 311 312 313 313 312 312 313 312 312 313 314 313 314 314 314 315 314 313 313 314 317 315 311 310 311 310 309 311 314
316 315 314 314 315 316 316 316 314 312 311 310 313 313 309 309 310 310 313 312 311 311 312 311 312 314 313 313 313 313 314 315 312 313 314 313 315 311 312 311 311 310 310 310 311
317 315 315 314 315 316 315 314 313 312 314 313 312 314 311 312 310 311 312 312 312 313 312 313 314 314 313 312 313 313 313 314 314 311 313 313 312 312 312 311 311 311 312 312 310
315 315 315 313 315 315 314 314 315 314 313 311 311 310 310 311 310 310 311 312 313 313 313 313 313 313 312 312 312 313 313 313 313 312 313 312 313 312 311 310 311 311 310 310 309
315 315 314 313 315 314 313 311 311 311 313 311 309 311 311 310 311 311 311 312 314 313 313 314 313 313 313 312 312 311 313 313 312 312 313 313 312 312 312 311 311 311 310 311 312
315 315 313 313 314 314 314 311 310 309 310 311 309 310 312 311 311 311 311 312 312 312 313 314 313 313 312 311 311 312 313 312 313 312 312 311 310 310 311 310 311 311 312 312 312
316 314 313 314 313 313 314 312 310 310 310 310 310 310 312 311 312 310 310 311 311 312 313 313 310 312 312 311 311 311 311 311 312 311 310 310 307 312 309 310 310 311 309 309 310
315 314 313 313 311 313 313 313 311 310 313 310 310 309 312 311 311 310 309 309 311 312 311 311 310 311 313 312 311 312 310 311 312 311 312 311 308 308 311 312 310 309 309 309 309
315 314 313 312 312 312 312 313 313 315 316 310 309 312 310 311 311 310 309 309 310 310 311 310 309 311 312 310 311 310 310 311 311 310 310 308 308 309 310 310 310 309 310 310 309
314 313 313 311 313 312 312 314 315 315 311 312 309 311 310 311 312 311 310 310 310 310 311 310 310 309 309 310 310 311 310 312 312 311 312 307 310 309 310 309 309 308 311 310 309
314 313 312 313 313 312 313 312 312 310 312 311 309 311 310 311 312 312 310 310 309 308 310 311 312 309 309 311 311 310 310 314 313 315 311 306 309 309 309 307 306 307 310 310 309
310 309 311 311 313 314 313 311 311 310 311 311 310 311 311 311 311 312 311 310 309 309 309 309 312 309 309 309 310 311 310 311 309 304 313 309 309 310 307 307 306 307 310 310 309
304 307 306 309 313 315 312 312 311 314 312 311 311 311 311 311 312 311 311 310 310 309 306 310 311 310 308 309 309 310 308 309 311 307 310 309 310 308 310 308 307 308 310 308 307
303 305 302 307 312 313 313 311 311 314 312 312 311 310 310 311 310 311 312 310 309 307 307 309 312 311 309 309 310 309 309 309 309 314 315 313 309 307 310 309 307 308 310 307 307
302 305 301 304 313 311 311 311 311 315 314 314 315 311 310 311 311 311 311 310 309 307 307 309 312 312 310 308 308 308 310 310 311 311 308 313 310 310 307 309 310 310 309 308 307
299 299 299 301 312 312 311 312 313 316 316 316 315 312 312 310 310 313 311 311 310 307 308 308 313 313 312 309 309 309 309 309 310 312 311 310 309 308 308 311 310 310 308 308 307
303 305 300 298 299 309 311 311 313 314 316 315 315 313 312 311 311 312 315 312 312 311 310 309 315 313 312 311 309 310 309 308 309 313 312 311 310 309 309 311 310 309 307 307 306
300 302 301 306 304 304 309 310 312 315 313 314 314 314 313 313 313 313 314 313 312 311 311 310 310 311 313 313 312 309 310 309 309 310 309 309 309 308 309 310 310 308 307 308 306
301 300 299 302 302 305 306 308 312 312 312 314 314 314 314 314 313 314 313 313 313 312 312 311 310 310 311 312 312 311 310 309 309 309 308 307 307 307 308 308 308 309 308 307 306
297 298 301 303 304 305 307 306 306 307 305 307 312 313 314 313 312 312 311 311 312 312 312 312 310 309 310 311 310 309 309 310 309 308 308 308 308 308 308 309 309 308 308 307 305
Wind_Speed
23 24 23 25 24 23 20 19 18 18 11 21 25 19 17 12 16 11 4 3 2 3 2 5 6 6 9 2 2 3 1 6 12 5 6 9 5 3 2 6 2 3 4 18 25
24 23 25 23 25 23 22 21 22 20 16 15 17 20 14 7 7 13 24 16 9 4 6 5 3 4 4 5 3 4 3 8 7 5 10 9 8 7 3 6 4 6 5 23 23
24 25 27 23 25 25 23 22 23 22 22 19 18 14 14 9 1 8 23 21 19 11 5 3 13 6 6 2 4 5 4 9 4 6 9 9 4 7 5 6 8 11 9 14 18
25 25 26 23 25 24 25 23 21 23 24 23 21 18 15 12 6 8 18 23 16 16 5 7 9 10 10 5 8 3 3 6 3 3 1 9 5 4 7 3 5 8 17 13 10
27 26 25 25 24 24 24 24 22 22 23 22 21 19 17 8 7 14 21 19 18 18 17 8 11 10 10 12 7 4 5 2 6 3 2 7 5 2 5 8 8 9 15 11 10
27 26 26 25 23 22 22 22 22 22 21 21 22 20 7 13 13 4 5 20 21 21 14 14 6 13 5 7 9 9 6 7 5 5 2 5 4 3 7 10 9 7 8 10 10
28 29 27 25 23 23 21 21 22 21 21 20 21 22 10 11 3 7 11 19 18 24 11 19 19 4 5 4 2 5 6 4 4 5 2 2 4 7 4 7 8 8 7 7 10
31 32 29 26 23 22 21 21 20 20 20 19 19 12 5 13 9 8 12 11 13 16 15 17 12 5 2 4 4 6 6 5 5 6 1 2 4 12 10 10 8 9 9 9 8
35 33 31 28 25 24 21 20 19 19 19 19 11 10 6 5 8 13 17 11 15 13 9 9 5 3 1 4 4 7 5 6 4 5 5 4 4 4 4 5 6 7 8 9 9
38 37 35 31 28 26 23 21 18 17 13 12 6 5 6 4 7 16 15 14 8 9 6 6 5 5 4 6 11 7 5 8 7 7 3 5 8 4 5 6 6 6 6 5 7
39 40 39 36 32 31 29 19 8 6 18 7 9 6 6 7 14 9 14 14 6 7 7 7 6 12 11 10 7 5 8 6 6 2 4 7 5 9 8 8 8 7 7 8 9
45 44 40 37 35 33 34 9 17 9 9 10 1 7 4 3 4 7 16 6 7 13 8 6 12 10 10 11 4 5 9 6 5 6 3 4 9 8 8 7 8 9 9 8 7
46 46 41 38 36 34 30 23 28 30 7 7 3 9 4 4 4 10 9 2 10 10 14 8 7 9 7 4 6 4 5 6 4 5 2 2 7 8 9 10 8 8 4 1 3
46 47 44 40 29 30 25 25 12 7 6 10 7 6 6 4 2 1 5 3 7 16 8 5 3 9 9 7 7 4 6 9 10 7 3 4 4 4 7 8 6 5 5 5 3
50 49 46 44 19 21 16 19 6 1 5 15 11 11 6 5 10 3 2 3 7 7 7 5 6 7 5 7 8 4 8 6 4 3 2 3 1 6 6 4 7 8 7 8 7
50 51 48 35 18 29 19 14 6 3 6 7 7 10 11 5 2 5 5 1 2 4 6 3 2 2 2 5 4 8 8 6 2 3 1 7 7 4 5 5 5 7 8 8 7
51 50 43 29 14 33 29 7 4 7 9 8 9 13 17 8 5 8 13 7 7 7 6 4 3 2 1 8 3 4 7 3 2 2 5 7 5 9 3 2 8 10 9 8 7
46 46 33 14 28 32 19 7 7 14 13 5 11 16 13 14 3 8 11 10 7 7 9 7 4 8 5 4 8 7 6 5 6 4 3 5 6 6 2 8 9 10 10 8 8
25 21 25 16 30 29 11 14 11 12 12 8 14 17 10 12 8 7 13 16 13 8 6 8 2 3 4 2 5 6 5 1 7 3 4 5 6 1 6 5 6 8 9 8 7
5 7 8 14 30 17 11 15 7 0 16 14 9 13 20 17 7 11 17 16 10 10 4 2 5 3 0 0 2 3 6 4 2 4 3 5 4 5 7 9 9 9 9 8 7
6 3 4 12 18 9 15 13 8 2 10 13 8 11 13 13 10 11 15 2 16 6 7 1 4 0 4 6 7 2 3 3 5 5 5 3 6 3 5 10 11 9 9 9 8
3 3 2 7 7 10 11 10 4 7 3 2 2 6 13 14 11 10 12 10 10 12 10 3 5 4 3 2 3 3 4 5 4 5 1 4 5 2 5 8 12 10 9 8 8
2 2 6 6 8 12 6 13 2 5 4 4 4 3 1 12 4 5 7 4 3 9 15 8 2 3 4 3 3 4 4 5 4 3 5 5 5 2 1 6 8 10 9 9 9
2 1 2 2 2 3 10 14 8 2 3 2 3 4 4 7 4 10 4 2 2 3 4 5 4 7 10 8 8 6 7 7 6 3 4 7 4 5 7 8 8 8 8 8 7
1 1 1 3 2 2 9 11 12 6 1 3 1 5 6 4 6 4 5 4 1 4 3 6 8 5 4 3 3 5 15 15 11 21 10 19 12 9 10 10 12 9 10 11 10
2 2 2 2 4 4 4 6 16 13 8 5 4 11 5 5 6 7 9 6 5 3 5 1 2 4 3 5 5 2 7 17 21 22 14 12 7 7 12 8 9 12 12 12 10
1 1 1 5 5 2 3 4 4 10 1 6 10 6 4 4 6 4 6 6 9 10 8 7 6 3 3 5 4 4 16 15 14 20 21 16 17 5 5 8 10 11 12 12 12
Wind_Direction
208 209 210 207 213 208 198 196 198 199 194 195 175 155 145 152 191 175 240 212 231 9 129 137 174 228 258 232 323 281 229 245 256 273 120 128 131 307 21 114 85 62 32 121 140
208 205 210 208 206 204 203 196 197 198 192 180 167 184 161 154 164 214 210 209 238 213 179 201 160 181 259 192 206 219 198 238 228 228 132 158 166 153 141 133 129 95 52 122 143
207 202 208 207 203 205 205 204 198 194 201 202 192 196 192 167 179 224 195 202 220 248 227 200 265 175 239 165 209 229 200 246 14 55 113 161 212 149 198 178 184 167 156 141 154
208 206 205 205 202 205 203 210 208 204 210 211 213 207 193 188 180 180 193 207 207 232 197 215 246 201 236 196 212 231 270 338 101 38 57 154 146 165 224 99 50 105 152 158 167
210 206 204 200 197 202 201 206 203 200 208 205 205 197 176 217 247 131 194 222 191 183 176 210 228 206 216 197 167 222 135 51 82 111 64 100 135 227 215 119 74 78 146 163 178
209 205 204 203 196 201 203 201 198 198 197 197 196 184 230 224 244 187 195 175 182 177 190 209 234 232 223 200 183 190 145 123 174 124 34 141 118 46 229 146 128 136 161 170 178
211 207 202 199 198 199 199 197 199 192 188 187 184 180 237 227 219 188 188 181 173 181 169 210 236 280 242 193 158 138 116 130 166 159 126 288 140 218 157 135 164 178 190 196 193
210 204 202 196 198 195 193 192 189 183 180 176 175 198 247 219 229 195 179 173 178 191 206 206 224 276 31 111 133 174 142 160 163 139 148 142 234 221 169 151 183 192 194 191 211
208 202 198 192 193 190 181 183 177 176 168 158 158 224 227 181 179 195 182 172 173 179 197 172 173 231 2 216 159 200 171 179 157 192 133 185 234 108 64 154 211 230 222 178 191
203 196 194 188 186 182 173 168 159 151 147 150 243 203 187 217 161 166 184 167 149 145 129 188 177 180 216 217 196 175 219 183 157 198 189 175 258 160 173 197 216 239 213 185 202
202 192 189 186 182 176 161 138 140 173 187 177 174 239 146 122 134 171 168 175 133 168 160 208 189 205 209 222 254 177 199 176 126 119 145 219 243 245 204 193 207 240 236 192 210
193 191 185 183 179 177 166 187 176 152 181 243 176 195 98 238 118 154 161 166 172 176 174 165 212 198 223 209 228 262 190 200 56 104 104 226 240 252 243 236 201 208 225 223 194
180 183 180 178 176 178 187 208 194 154 152 182 231 178 159 204 152 176 172 203 181 181 194 174 176 228 156 156 174 224 184 148 134 127 268 338 277 234 228 225 216 210 190 53 83
183 179 176 173 169 178 206 197 180 174 162 161 194 203 144 212 118 145 198 183 202 193 164 224 201 166 161 179 170 168 87 111 125 139 206 178 267 234 194 196 188 205 200 219 119
180 177 174 173 158 181 188 199 181 67 205 166 152 148 148 186 137 216 118 212 170 167 156 174 149 160 178 181 188 161 114 123 129 137 93 212 95 255 107 202 190 185 142 95 85
175 174 171 169 171 178 187 174 139 203 228 163 141 161 154 160 138 118 141 142 37 75 67 73 303 152 141 45 134 145 106 90 120 129 273 203 168 262 175 198 105 121 115 125 133
170 172 167 167 160 167 164 144 144 205 138 165 186 169 166 159 127 175 174 168 153 138 166 127 118 83 152 85 15 144 139 121 158 174 215 335 181 242 156 94 151 142 131 126 147
174 168 165 165 156 161 167 169 186 200 191 161 163 161 174 149 126 168 158 192 247 213 139 159 207 172 192 153 171 202 183 155 172 178 190 345 231 249 89 115 95 112 121 123 109
138 129 139 157 164 160 172 184 197 190 183 132 137 164 182 177 134 146 184 194 200 189 168 173 108 60 55 46 143 195 213 110 105 20 79 205 264 228 142 136 132 136 136 135 116
60 109 110 157 164 161 191 194 207 108 152 153 164 180 184 176 147 175 183 197 195 189 96 178 110 337 257 188 93 169 151 78 355 127 219 243 241 229 195 195 175 166 155 135 127
45 89 32 142 160 174 202 189 180 16 138 164 194 177 184 179 180 192 183 205 185 139 119 93 96 261 142 210 162 150 188 201 144 159 166 170 253 246 202 172 169 169 150 150 148
29 117 347 154 167 198 208 187 224 139 40 238 314 181 185 167 184 192 195 195 165 151 163 133 102 145 174 121 54 347 193 164 145 227 203 151 265 12 3 141 150 153 140 137 134
44 53 334 8 198 183 160 216 279 134 168 159 203 107 272 162 153 167 139 353 55 155 163 171 168 93 28 21 47 223 190 227 112 81 198 140 256 330 305 123 137 143 141 140 143
135 116 58 20 50 200 176 203 203 118 124 95 99 78 114 155 120 183 126 151 66 92 84 114 146 182 197 210 132 187 191 205 181 134 180 219 161 213 192 170 152 148 143 146 146
339 89 324 156 159 129 170 171 196 165 68 186 80 209 159 134 156 192 117 110 112 136 133 165 190 165 73 76 108 176 189 191 205 223 192 232 219 197 193 186 182 156 151 158 155
137 175 178 83 118 133 123 186 198 206 159 196 208 183 193 151 175 178 134 168 175 165 165 167 182 114 37 83 83 63 201 195 207 224 234 250 253 181 188 162 155 169 166 169 162
212 221 159 141 134 97 132 134 160 146 320 292 196 144 184 114 71 79 96 128 157 158 166 146 131 119 223 111 85 325 218 198 213 224 217 230 227 160 137 160 172 177 175 173 166